Location: Unspecified
(0.0000°N, 0.0000°E)
Time: 04:32:43
(UTC+00:00)

Explorer 7 - All Passes

Search period start: 21 April 2014 00:00
Search period end: 01 May 2014 00:00
Orbit: 493 x 710 km, 50.3° (Epoch: 20 April)

Date Brightness Start Highest point End Pass type
(mag) Time Alt. Az. Time Alt. Az. Time Alt. Az.
21 Apr - 09:26:16 10° N 09:29:59 21° NE 09:33:39 10° E daylight
21 Apr - 11:06:24 10° WNW 11:10:54 33° SW 11:15:16 10° S daylight
21 Apr - 21:32:17 10° S 21:35:17 22° SE 21:38:20 10° ENE night (unlit)
21 Apr - 23:13:28 10° W 23:16:01 17° NW 23:18:37 10° N night (unlit)
22 Apr - 09:36:21 10° NNW 09:41:11 45° NE 09:45:53 10° SE daylight
22 Apr - 11:19:11 10° W 11:22:03 15° SW 11:24:52 10° SSW daylight
22 Apr - 21:42:39 10° SSW 21:46:24 61° SE 21:50:14 10° NE night (unlit)
23 Apr - 09:47:15 10° NW 09:52:19 79° SW 09:57:14 10° SSE daylight
23 Apr - 21:53:53 10° SW 21:57:30 44° NW 22:01:14 10° NNE night (unlit)
24 Apr - 08:18:48 10° N 08:22:30 20° NE 08:26:10 10° E daylight
24 Apr - 09:58:51 10° WNW 10:03:25 34° SW 10:07:53 10° SSE daylight
24 Apr - 20:25:00 10° S 20:27:56 21° SE 20:30:53 10° ENE night (unlit)
24 Apr - 22:06:09 10° W 22:08:39 17° NW 22:11:11 10° N night (unlit)
25 Apr - 08:28:50 10° NNW 08:33:39 44° NE 08:38:24 10° SE daylight
25 Apr - 10:11:30 10° W 10:14:32 16° SW 10:17:32 10° SSW daylight
25 Apr - 20:35:18 10° SSW 20:39:01 59° SE 20:42:48 10° NE night (unlit)
26 Apr - 08:39:40 10° NW 08:44:44 81° SW 08:49:44 10° SE daylight
26 Apr - 20:46:28 10° SW 20:50:05 44° NW 20:53:45 10° NNE night (unlit)
27 Apr - 07:11:15 10° N 07:14:54 20° NE 07:18:32 10° E daylight
27 Apr - 08:51:11 10° WNW 08:55:48 36° SW 09:00:22 10° SSE daylight
27 Apr - 19:17:36 10° S 19:20:29 21° SE 19:23:22 10° ENE visible
27 Apr - 20:58:41 10° W 21:01:11 17° NW 21:03:42 10° N night (unlit)
28 Apr - 07:21:13 10° NNW 07:26:00 43° NE 07:30:46 10° SE daylight
28 Apr - 09:03:44 10° W 09:06:54 17° SW 09:10:03 10° SSW daylight
28 Apr - 19:27:49 10° SSW 19:31:32 57° SE 19:35:15 10° NE visible
29 Apr - 07:31:59 10° NW 07:37:02 84° SW 07:42:06 10° SE daylight
29 Apr - 19:38:56 10° SW 19:42:34 46° NW 19:46:12 10° NNE visible
30 Apr - 06:03:38 10° N 06:07:11 19° NE 06:10:46 10° E daylight
30 Apr - 07:43:26 10° WNW 07:48:05 37° SW 07:52:43 10° SSE daylight
30 Apr - 18:10:02 10° S 18:12:55 20° SE 18:15:45 10° ENE daylight
30 Apr - 19:51:04 10° W 19:53:36 17° NW 19:56:08 10° N visible
